Home > Time Zones > World Clock > Weather > Palau > Koror > Past weeks

Flag for Palau Weather past 2 weeks in Koror, Palau

Now
81 °F

Partly cloudy.


Feels Like: 85 °F
Forecast: 79 / 89 °F
Wind: No wind

Location: Koror / Palau Island

Current Time: Apr 19, 2015 at 12:26:45 AM

Latest Report: Apr 18, 2015 at 11:50 PM


Visibility: 14 mi

Pressure: 29.90 "Hg

Humidity: 79%

Dew point: 73 °F

Location of KororLocation

Historic Weather in Koror — Graph

°F

Koror temperature yesterday

Maximum temperature yesterday: 88 °F (at 11:52 AM)
Minimum temperature yesterday: 77 °F (at 2:50 AM)
Average temperature yesterday: 83 °F

Past Weeks' High & Low Weather Summary

 TemperatureHumidityPressure
High90 °F (Apr 6, 1:53 PM)100% (Apr 4, 12:52 AM)29.95 "Hg (Apr 4, 12:52 AM)
Low73 °F (Apr 4, 12:52 AM)59% (Apr 6, 11:50 AM)29.74 "Hg (Apr 6, 2:50 PM)
Average81 °F85%29.84 "Hg
* Reported Apr 3 10:55 PM — Apr 18 10:52 PM, Koror, Weather by CustomWeather, © 2015

Note: Actual official high and low records may vary slightly from our data, if they occured in-between our weather recording intervals... More about our weather records

Advertising

Koror weather history for previous 24 hours

 ConditionsComfort  
Time TempWeatherWind HumidityBarometerVisibility
10:52 PM
Sat, Apr 18
81 °FPartly cloudy.No wind79%29.90 "Hg14 mi
9:55 PM81 °FPartly cloudy.5 mph84%29.89 "Hg14 mi
8:51 PM81 °FPartly cloudy.5 mph84%29.88 "Hg14 mi
7:50 PM81 °FPartly cloudy.3 mph84%29.87 "Hg15 mi
6:55 PM81 °FPartly cloudy.6 mph84%29.85 "Hg15 mi
5:52 PM84 °FBroken clouds.7 mph74%29.84 "Hg15 mi
4:54 PM86 °FBroken clouds.7 mph75%29.82 "Hg15 mi
3:50 PM86 °FBroken clouds.9 mph75%29.82 "Hg15 mi
2:51 PM86 °FBroken clouds.12 mph75%29.83 "Hg15 mi
1:50 PM88 °FBroken clouds.14 mph70%29.84 "Hg15 mi
12:50 PM88 °FBroken clouds.9 mph70%29.85 "Hg15 mi
11:52 AM88 °FBroken clouds.12 mph70%29.86 "Hg15 mi
10:54 AM86 °FBroken clouds.13 mph75%29.87 "Hg15 mi
9:50 AM86 °FBroken clouds.10 mph75%29.88 "Hg15 mi
8:50 AM86 °FScattered clouds.12 mph75%29.90 "Hg15 mi
7:50 AM84 °FScattered clouds.8 mph79%29.89 "Hg15 mi
6:50 AM81 °FBroken clouds.5 mph89%29.87 "Hg15 mi
5:50 AM77 °FOvercast.3 mph94%29.87 "Hg15 mi
4:50 AM79 °FMostly cloudy.3 mph94%29.86 "Hg14 mi
3:50 AM77 °FMostly cloudy.No wind94%29.84 "Hg14 mi
2:50 AM77 °FMostly cloudy.2 mph94%29.84 "Hg14 mi
1:50 AM79 °FMostly cloudy.3 mph94%29.86 "Hg14 mi
12:50 AM79 °FSnow. Mostly cloudy.6 mph94%29.88 "HgN/A
Weather by CustomWeather, © 2015

See weather overviewHow to use our weather pages